DW6016 Weather Reports


Display with metric or nautical units.
time (UTC)temp
F
wind
direction
speed
MPH
gust
MPH
rain 1hr
in
rain 24hr
in
rain mn
in
humidity
%
barometer
mb
20260831135727 52 319 0.0 0.0 0.00 0.00 0.00 99 1012.8
20260831135223 52 319 0.0 0.0 0.00 0.00 0.00 99 1012.9
20260831134718 52 319 0.0 0.0 0.00 0.00 0.00 99 1012.7
20260831134214 52 319 0.0 0.0 0.00 0.00 0.00 99 1012.7
20260831133713 52 319 0.0 0.0 0.00 0.00 0.00 99 1012.8
20260831133207 52 319 0.0 0.0 0.00 0.00 0.00 99 1012.9
20260831132703 51 319 0.0 0.0 0.00 0.00 0.00 99 1012.7
20260831132202 51 319 0.0 0.0 0.00 0.00 0.00 99 1013.0
20260831131657 51 319 0.0 0.0 0.00 0.00 0.00 99 1012.9
20260831131154 51 319 0.0 0.0 0.00 0.00 0.00 99 1013.0
20260831130649 51 319 0.0 0.0 0.00 0.00 0.00 99 1013.0
20260831130144 52 319 0.0 0.0 0.00 0.00 0.00 99 1013.1
20260831125642 52 319 0.0 0.0 0.00 0.00 0.00 99 1013.0
20260831125138 52 319 0.0 0.0 0.00 0.00 0.00 99 1013.3
20260831124634 52 319 0.0 0.0 0.00 0.00 0.00 99 1013.1
20260831124130 53 319 0.0 0.0 0.00 0.00 0.00 99 1013.3
20260831123629 53 319 0.0 0.0 0.00 0.00 0.00 99 1013.1
20260831123129 53 319 0.0 0.0 0.00 0.00 0.00 99 1013.2
20260831122628 53 319 0.0 0.0 0.00 0.00 0.00 99 1013.1
20260831122125 53 319 0.0 0.0 0.00 0.00 0.00 99 1013.2
20260831121624 53 319 0.0 0.0 0.00 0.00 0.00 99 1013.2
20260831121120 53 319 0.0 0.0 0.00 0.00 0.00 99 1013.3
20260831120615 53 319 0.0 0.0 0.00 0.00 0.00 99 1013.4
20260831120110 53 319 0.0 0.0 0.00 0.00 0.00 98 1013.4
20260831115606 53 319 0.0 0.0 0.00 0.00 0.00 98 1013.3
20260831115101 53 319 0.0 0.0 0.00 0.00 0.00 98 1013.3
20260831114600 53 319 0.0 0.0 0.00 0.00 0.00 97 1013.5
20260831114055 54 319 0.0 0.0 0.00 0.00 0.00 97 1013.6
20260831113554 54 319 0.0 0.0 0.00 0.00 0.00 97 1013.6
20260831113050 54 319 0.0 0.0 0.00 0.00 0.00 97 1013.4
20260831112549 54 319 0.0 0.0 0.00 0.00 0.00 96 1013.6
20260831112044 55 319 0.0 0.0 0.00 0.00 0.00 96 1013.5
20260831111540 55 319 0.0 0.0 0.00 0.00 0.00 96 1013.5
20260831111036 55 319 0.0 0.0 0.00 0.00 0.00 96 1013.8
20260831110531 55 319 0.0 0.0 0.00 0.00 0.00 96 1013.4
20260831110026 55 320 0.0 0.0 0.00 0.00 0.00 95 1013.6
20260831105525 56 320 0.0 0.0 0.00 0.00 0.00 95 1013.8
20260831105020 56 319 0.0 0.0 0.00 0.00 0.00 94 1013.6
20260831104517 56 320 0.0 0.0 0.00 0.00 0.00 94 1013.6
20260831104012 56 321 0.0 0.0 0.00 0.00 0.00 94 1013.7
20260831103507 57 321 0.0 0.0 0.00 0.00 0.00 93 1013.9
20260831103003 57 321 0.0 0.0 0.00 0.00 0.00 93 1013.7
20260831102457 57 322 0.0 0.0 0.00 0.00 0.00 93 1013.7
20260831101952 57 313 0.0 0.0 0.00 0.00 0.00 93 1013.7
20260831101447 57 310 0.0 0.0 0.00 0.00 0.00 93 1013.7
20260831100943 57 308 0.0 1.0 0.00 0.00 0.00 93 1013.8
20260831100439 57 302 0.0 0.0 0.00 0.00 0.00 93 1014.0
20260831095934 57 308 0.0 0.0 0.00 0.00 0.00 93 1014.0
20260831095433 57 315 0.0 0.0 0.00 0.00 0.00 93 1014.0
20260831094928 57 315 0.0 0.0 0.00 0.00 0.00 93 1014.1
20260831094424 57 318 0.0 0.0 0.00 0.00 0.00 92 1014.2
20260831093920 57 308 0.0 0.0 0.00 0.00 0.00 92 1014.0
20260831093414 57 309 0.0 0.0 0.00 0.00 0.00 91 1014.1
20260831092912 58 309 0.0 0.0 0.00 0.00 0.00 90 1014.2
20260831092407 58 309 0.0 0.0 0.00 0.00 0.00 90 1014.2
20260831091902 58 317 0.0 0.0 0.00 0.00 0.00 90 1014.5
20260831091357 58 292 0.0 1.0 0.00 0.00 0.00 91 1014.1
20260831090852 58 317 0.0 0.0 0.00 0.00 0.00 91 1014.4
20260831090348 57 288 0.0 1.0 0.00 0.00 0.00 92 1014.4
20260831085844 57 310 0.0 0.0 0.00 0.00 0.00 92 1014.3
20260831085338 57 311 0.0 0.0 0.00 0.00 0.00 91 1014.4
20260831084833 57 311 0.0 0.0 0.00 0.00 0.00 91 1014.3
20260831084329 57 310 0.0 0.0 0.00 0.00 0.00 92 1014.7
20260831083825 57 304 0.0 0.0 0.00 0.00 0.00 91 1014.6
20260831083321 57 303 0.0 0.0 0.00 0.00 0.00 91 1014.7
20260831082819 58 303 0.0 0.0 0.00 0.00 0.00 90 1014.6
20260831082314 58 303 0.0 0.0 0.00 0.00 0.00 90 1014.7
20260831081810 58 303 0.0 0.0 0.00 0.00 0.00 90 1014.8
20260831081305 58 303 1.0 1.0 0.00 0.00 0.00 90 1014.8
20260831080801 58 303 0.0 0.0 0.00 0.00 0.00 90 1015.0
20260831080255 58 303 0.0 0.0 0.00 0.00 0.00 89 1015.2
20260831075751 58 303 0.0 0.0 0.00 0.00 0.00 88 1015.1
20260831075247 59 303 0.0 0.0 0.00 0.00 0.00 86 1015.0
20260831074746 59 303 0.0 0.0 0.00 0.00 0.00 86 1015.2
20260831074240 60 303 0.0 0.0 0.00 0.00 0.00 85 1015.1
20260831073736 60 305 0.0 0.0 0.00 0.00 0.00 85 1015.2
20260831073235 60 300 0.0 0.0 0.00 0.00 0.00 84 1015.3
20260831072730 60 311 0.0 0.0 0.00 0.00 0.00 84 1015.1
20260831072227 60 310 0.0 0.0 0.00 0.00 0.00 83 1015.4
20260831071726 61 310 0.0 0.0 0.00 0.00 0.00 83 1015.3
20260831071221 61 319 0.0 0.0 0.00 0.00 0.00 82 1015.3
20260831070715 61 323 0.0 1.0 0.00 0.00 0.00 82 1015.6
20260831070209 61 302 0.0 1.0 0.00 0.00 0.00 82 1015.3
20260831065708 61 315 0.0 0.0 0.00 0.00 0.00 81 1015.5
20260831065207 62 294 0.0 0.0 0.00 0.00 0.00 80 1015.5
20260831064702 62 313 0.0 0.0 0.00 0.00 0.00 80 1015.7
20260831064157 62 307 0.0 0.0 0.00 0.00 0.00 79 1015.7
20260831063653 62 290 1.0 1.0 0.00 0.00 0.00 79 1015.6
20260831063148 62 328 0.0 0.0 0.00 0.00 0.00 79 1015.6
20260831062648 63 300 0.0 1.0 0.00 0.00 0.00 78 1015.7
20260831062142 63 314 0.0 0.0 0.00 0.00 0.00 78 1015.6
20260831061640 63 268 1.0 2.0 0.00 0.00 0.00 78 1015.8
20260831061136 63 306 1.0 1.0 0.00 0.00 0.00 77 1015.8
20260831060632 63 28 1.0 1.0 0.00 0.00 0.00 77 1015.8
20260831060132 63 317 0.0 0.0 0.00 0.00 0.00 77 1015.8
20260831055631 63 300 0.0 0.0 0.00 0.00 0.00 77 1016.0
20260831055127 63 294 0.0 1.0 0.00 0.00 0.00 76 1015.8
20260831054626 63 298 0.0 1.0 0.00 0.00 0.00 77 1015.9
20260831054120 63 302 1.0 1.0 0.00 0.00 0.00 76 1016.0
20260831053615 63 297 0.0 0.0 0.00 0.00 0.00 76 1016.0
20260831053114 63 314 0.0 0.0 0.00 0.00 0.00 76 1016.1
20260831052612 63 357 0.0 1.0 0.00 0.00 0.00 75 1016.1
20260831052107 64 314 0.0 1.0 0.00 0.00 0.00 75 1016.3
20260831051605 64 286 1.0 1.0 0.00 0.00 0.00 75 1016.2
20260831051104 64 308 0.0 1.0 0.00 0.00 0.00 74 1016.2
20260831050604 64 302 0.0 0.0 0.00 0.00 0.00 74 1016.4
20260831045557 64 308 0.0 0.0 0.00 0.00 0.00 74 1016.4
20260831045052 64 297 0.0 0.0 0.00 0.00 0.00 74 1016.5
20260831044548 64 328 0.0 1.0 0.00 0.00 0.00 74 1016.6
20260831044042 64 310 0.0 0.0 0.00 0.00 0.00 73 1016.8
20260831043537 64 297 0.0 1.0 0.00 0.00 0.00 74 1016.4
20260831043033 64 297 0.0 0.0 0.00 0.00 0.00 74 1016.6
20260831042532 64 317 0.0 0.0 0.00 0.00 0.00 73 1016.5
20260831042027 64 318 0.0 0.0 0.00 0.00 0.00 73 1016.9
20260831041522 64 329 0.0 1.0 0.00 0.00 0.00 73 1016.8
20260831041021 64 318 0.0 0.0 0.00 0.00 0.00 72 1016.8
20260831040516 64 319 0.0 0.0 0.00 0.00 0.00 72 1016.6
20260831040015 65 126 0.0 0.0 0.00 0.00 0.00 71 1016.7
20260831035508 65 312 0.0 0.0 0.00 0.00 0.00 70 1016.7
20260831035003 65 320 0.0 0.0 0.00 0.00 0.00 70 1016.8
20260831034457 65 305 0.0 0.0 0.00 0.00 0.00 70 1016.7
20260831033953 65 315 0.0 1.0 0.00 0.00 0.00 69 1016.7
20260831033448 65 299 0.0 0.0 0.00 0.00 0.00 69 1016.5
20260831032943 65 307 1.0 1.0 0.00 0.00 0.00 69 1016.6
20260831032438 66 312 0.0 1.0 0.00 0.00 0.00 68 1016.8
20260831031933 66 297 0.0 0.0 0.00 0.00 0.00 68 1016.8
20260831031433 66 295 0.0 1.0 0.00 0.00 0.00 67 1016.7
20260831030932 66 311 0.0 0.0 0.00 0.00 0.00 67 1016.9
20260831030431 67 310 0.0 0.0 0.00 0.00 0.00 66 1016.8
20260831025930 67 287 2.0 2.0 0.00 0.00 0.00 65 1016.9
20260831025429 67 309 0.0 0.0 0.00 0.00 0.00 65 1016.7
20260831024925 67 273 0.0 0.0 0.00 0.00 0.00 64 1016.9
20260831024424 67 302 0.0 1.0 0.00 0.00 0.00 64 1016.6
20260831023919 68 300 0.0 0.0 0.00 0.00 0.00 64 1016.9
20260831023418 68 305 0.0 1.0 0.00 0.00 0.00 63 1016.9
20260831022913 68 306 0.0 0.0 0.00 0.00 0.00 62 1016.9
20260831022412 68 309 0.0 0.0 0.00 0.00 0.00 63 1016.9
20260831021906 68 308 1.0 1.0 0.00 0.00 0.00 62 1017.0
20260831021406 69 316 0.0 0.0 0.00 0.00 0.00 61 1017.0
20260831020902 69 310 1.0 1.0 0.00 0.00 0.00 60 1017.0
20260831020401 69 336 2.0 2.0 0.00 0.00 0.00 60 1017.0
20260831015856 69 134 2.0 3.0 0.00 0.00 0.00 60 1017.2
20260831015352 69 306 2.0 2.0 0.00 0.00 0.00 59 1017.0
20260831014852 70 281 1.0 3.0 0.00 0.00 0.00 59 1017.1
20260831014347 70 308 0.0 1.0 0.00 0.00 0.00 59 1017.3
20260831013843 70 334 1.0 1.0 0.00 0.00 0.00 58 1017.2
20260831013338 71 309 2.0 2.0 0.00 0.00 0.00 57 1017.0
20260831012832 71 296 0.0 1.0 0.00 0.00 0.00 56 1017.0
20260831012328 71 308 0.0 1.0 0.00 0.00 0.00 56 1017.0
20260831011828 71 157 0.0 1.0 0.00 0.00 0.00 56 1017.3
20260831011323 71 306 0.0 0.0 0.00 0.00 0.00 55 1017.2
20260831010819 71 309 0.0 1.0 0.00 0.00 0.00 56 1017.4
20260831010318 71 303 0.0 1.0 0.00 0.00 0.00 56 1017.4
20260831005814 71 320 0.0 1.0 0.00 0.00 0.00 55 1017.5
20260831005310 71 318 2.0 3.0 0.00 0.00 0.00 55 1017.6
20260831004804 71 322 0.0 1.0 0.00 0.00 0.00 55 1017.6
20260831004301 71 247 1.0 2.0 0.00 0.00 0.00 55 1017.6
20260831003756 71 276 2.0 2.0 0.00 0.00 0.00 54 1017.7
20260831003252 71 323 0.0 1.0 0.00 0.00 0.00 54 1017.6
20260831002751 71 319 1.0 1.0 0.00 0.00 0.00 53 1017.8
20260831002250 71 288 1.0 1.0 0.00 0.00 0.00 52 1017.9
20260831001747 71 295 2.0 2.0 0.00 0.00 0.00 53 1017.7
20260831001241 71 274 1.0 1.0 0.00 0.00 0.00 52 1018.0
20260831000738 71 303 1.0 1.0 0.00 0.00 0.00 52 1017.7
20260831000233 71 296 2.0 3.0 0.00 0.00 0.00 54 1017.9
20260830235732 71 303 2.0 2.0 0.00 0.00 0.00 55 1018.0
20260830235227 71 294 2.0 2.0 0.00 0.00 0.00 53 1017.8
20260830234722 71 302 1.0 1.0 0.00 0.00 0.00 53 1018.0
20260830234218 71 304 1.0 2.0 0.00 0.00 0.00 53 1018.0
20260830233713 71 306 3.0 3.0 0.00 0.00 0.00 53 1018.0
20260830233209 71 281 1.0 1.0 0.00 0.00 0.00 53 1018.4
20260830232704 71 310 1.0 1.0 0.00 0.00 0.00 53 1018.1
20260830232200 71 301 0.0 1.0 0.00 0.00 0.00 54 1018.2
20260830231656 71 305 1.0 2.0 0.00 0.00 0.00 54 1018.4
20260830231155 71 301 1.0 1.0 0.00 0.00 0.00 53 1018.3
20260830230650 71 288 2.0 2.0 0.00 0.00 0.00 53 1018.2
20260830230145 71 269 1.0 1.0 0.00 0.00 0.00 54 1018.2
20260830225640 71 239 1.0 2.0 0.00 0.00 0.00 53 1018.4
20260830225135 71 304 2.0 2.0 0.00 0.00 0.00 53 1018.4
20260830224634 70 274 1.0 1.0 0.00 0.00 0.00 54 1018.7
20260830224130 70 45 3.0 3.0 0.00 0.00 0.00 54 1018.5
20260830223627 70 310 2.0 2.0 0.00 0.00 0.00 54 1018.9
20260830223126 70 299 1.0 1.0 0.00 0.00 0.00 55 1018.8
20260830222620 70 299 1.0 2.0 0.00 0.00 0.00 54 1019.1
20260830222117 71 338 1.0 1.0 0.00 0.00 0.00 54 1019.0
20260830221612 71 295 2.0 5.0 0.00 0.00 0.00 54 1019.2
20260830221108 70 309 0.0 0.0 0.00 0.00 0.00 55 1019.4
20260830220603 70 288 1.0 2.0 0.00 0.00 0.00 53 1019.3
20260830220056 70 288 2.0 5.0 0.00 0.00 0.00 54 1019.3
20260830215555 70 322 1.0 2.0 0.00 0.00 0.00 54 1019.6
20260830215049 70 281 2.0 3.0 0.00 0.00 0.00 54 1019.6
20260830214544 70 274 3.0 3.0 0.00 0.00 0.00 53 1019.5
20260830214039 70 211 3.0 3.0 0.00 0.00 0.00 54 1019.6
20260830213534 70 305 1.0 1.0 0.00 0.00 0.00 54 1019.7
20260830213029 70 79 5.0 7.0 0.00 0.00 0.00 54 1019.8
20260830212525 70 299 1.0 1.0 0.00 0.00 0.00 54 1020.1
20260830212020 69 312 2.0 2.0 0.00 0.00 0.00 55 1019.9
20260830211515 69 161 1.0 2.0 0.00 0.00 0.00 56 1020.1
20260830211014 69 302 1.0 1.0 0.00 0.00 0.00 56 1020.0
20260830210509 70 2 2.0 2.0 0.00 0.00 0.00 54 1020.0
20260830210009 69 269 1.0 2.0 0.00 0.00 0.00 56 1020.1
20260830205506 69 303 1.0 1.0 0.00 0.00 0.00 54 1019.9
20260830205003 69 323 0.0 1.0 0.00 0.00 0.00 55 1019.9
20260830204501 69 300 1.0 1.0 0.00 0.00 0.00 55 1020.1
20260830203955 69 311 1.0 1.0 0.00 0.00 0.00 54 1020.4
20260830203452 69 304 0.0 1.0 0.00 0.00 0.00 56 1020.5
20260830202951 69 306 0.0 0.0 0.00 0.00 0.00 56 1020.5
20260830202446 69 307 1.0 1.0 0.00 0.00 0.00 55 1020.5
20260830201943 69 260 0.0 1.0 0.00 0.00 0.00 57 1020.6
20260830201441 69 163 3.0 5.0 0.00 0.00 0.00 55 1020.8
20260830200937 69 282 0.0 0.0 0.00 0.00 0.00 56 1020.7
20260830200436 69 106 2.0 2.0 0.00 0.00 0.00 56 1020.8
20260830195931 69 200 2.0 2.0 0.00 0.00 0.00 54 1020.7
20260830195426 68 301 0.0 0.0 0.00 0.00 0.00 57 1020.6
20260830194925 67 304 1.0 1.0 0.00 0.00 0.00 57 1020.9
20260830194424 68 304 1.0 1.0 0.00 0.00 0.00 55 1020.8
20260830193924 69 332 3.0 3.0 0.00 0.00 0.00 54 1020.9
20260830193423 69 5 1.0 1.0 0.00 0.00 0.00 55 1020.8
20260830192919 69 169 1.0 1.0 0.00 0.00 0.00 55 1020.7
20260830192414 68 287 2.0 3.0 0.00 0.00 0.00 56 1021.0
20260830191909 68 307 1.0 1.0 0.00 0.00 0.00 56 1021.2
20260830191408 67 312 2.0 3.0 0.00 0.00 0.00 58 1021.2
20260830190904 67 298 3.0 3.0 0.00 0.00 0.00 59 1021.1
20260830190359 66 208 1.0 2.0 0.00 0.00 0.00 61 1021.3
20260830185858 65 311 1.0 1.0 0.00 0.00 0.00 61 1021.3
20260830185354 65 311 0.0 1.0 0.00 0.00 0.00 62 1021.1
20260830184848 65 303 1.0 2.0 0.00 0.00 0.00 63 1021.5
20260830184348 66 297 1.0 2.0 0.00 0.00 0.00 62 1021.3
20260830183843 64 315 0.0 1.0 0.00 0.00 0.00 65 1021.3
20260830183343 65 300 2.0 2.0 0.00 0.00 0.00 64 1021.5
20260830182838 64 309 0.0 0.0 0.00 0.00 0.00 66 1021.6
20260830182334 65 302 1.0 2.0 0.00 0.00 0.00 64 1021.6
20260830181830 64 321 1.0 2.0 0.00 0.00 0.00 66 1021.6
20260830181325 64 305 0.0 0.0 0.00 0.00 0.00 67 1021.5
20260830180824 64 308 1.0 1.0 0.00 0.00 0.00 66 1021.5
20260830180319 64 337 0.0 0.0 0.00 0.00 0.00 64 1021.0
20260830175818 64 310 0.0 0.0 0.00 0.00 0.00 65 1021.3
20260830175313 64 302 1.0 1.0 0.00 0.00 0.00 64 1021.3
20260830174808 65 232 1.0 1.0 0.00 0.00 0.00 65 1021.4
20260830174304 64 281 1.0 1.0 0.00 0.00 0.00 67 1021.5
20260830173803 63 345 1.0 1.0 0.00 0.00 0.00 68 1021.5
20260830173259 63 338 1.0 1.0 0.00 0.00 0.00 68 1021.5
20260830172755 62 337 0.0 0.0 0.00 0.00 0.00 70 1021.6
20260830172252 62 300 0.0 0.0 0.00 0.00 0.00 75 1021.5
20260830171747 61 322 0.0 0.0 0.00 0.00 0.00 76 1021.4
20260830171242 61 303 0.0 0.0 0.00 0.00 0.00 77 1021.4
20260830170737 61 313 0.0 1.0 0.00 0.00 0.00 77 1021.5
20260830170236 61 304 1.0 1.0 0.00 0.00 0.00 76 1021.4
20260830165735 62 311 1.0 1.0 0.00 0.00 0.00 76 1021.5
20260830165231 63 179 1.0 2.0 0.00 0.00 0.00 74 1021.3
20260830164727 63 266 1.0 1.0 0.00 0.00 0.00 74 1021.4
20260830164223 61 317 0.0 0.0 0.00 0.00 0.00 77 1021.5
20260830163720 61 323 0.0 1.0 0.00 0.00 0.00 77 1021.4
20260830163215 62 313 2.0 2.0 0.00 0.00 0.00 76 1021.5
20260830162709 63 195 2.0 2.0 0.00 0.00 0.00 73 1021.5
20260830162205 61 319 0.0 0.0 0.00 0.00 0.00 78 1021.9
20260830161700 63 309 1.0 1.0 0.00 0.00 0.00 75 1021.8
20260830161154 62 299 0.0 0.0 0.00 0.00 0.00 75 1021.9
20260830160651 61 306 1.0 1.0 0.00 0.00 0.00 77 1021.9
20260830160145 62 323 1.0 1.0 0.00 0.00 0.00 77 1022.0
20260830155642 62 315 1.0 1.0 0.00 0.00 0.00 76 1021.8
20260830155137 63 356 0.0 0.0 0.00 0.00 0.00 75 1021.8
20260830154632 62 32 1.0 1.0 0.00 0.00 0.00 77 1021.6
20260830154128 62 2 0.0 1.0 0.00 0.00 0.00 75 1021.9
20260830153625 63 358 0.0 1.0 0.00 0.00 0.00 75 1021.9
20260830153124 61 279 0.0 0.0 0.00 0.00 0.00 76 1021.9
20260830152623 62 318 0.0 0.0 0.00 0.00 0.00 75 1022.0
20260830152123 61 305 0.0 0.0 0.00 0.00 0.00 78 1022.0
20260830151618 60 305 0.0 0.0 0.00 0.00 0.00 79 1022.2
20260830151113 60 304 0.0 0.0 0.00 0.00 0.00 81 1022.1
20260830150612 57 304 0.0 0.0 0.00 0.00 0.00 85 1022.2
20260830150107 55 304 0.0 0.0 0.00 0.00 0.00 90 1022.0
20260830145606 54 303 0.0 0.0 0.00 0.00 0.00 92 1022.1
20260830145101 52 306 0.0 0.0 0.00 0.00 0.00 98 1021.9
20260830144557 52 306 0.0 0.0 0.00 0.00 0.00 99 1022.0
20260830144053 51 306 0.0 0.0 0.00 0.00 0.00 99 1022.1
20260830143549 50 306 0.0 0.0 0.00 0.00 0.00 99 1022.3
20260830143047 50 306 0.0 0.0 0.00 0.00 0.00 99 1022.2
20260830142542 49 306 0.0 0.0 0.00 0.00 0.00 99 1022.0
20260830142037 49 306 0.0 0.0 0.00 0.00 0.00 99 1021.9
20260830141532 49 306 0.0 0.0 0.00 0.00 0.00 99 1022.2
20260830141027 49 306 0.0 0.0 0.00 0.00 0.00 99 1022.1
20260830140526 49 306 0.0 0.0 0.00 0.00 0.00 99 1022.1
20260830140023 49 306 0.0 0.0 0.00 0.00 0.00 99 1022.0